• In Czech Republic
  • List of Countries
  • For 7 days
  • Water Temperature
  • Satellite Maps
  • Weather Map
  • Weather Widgets
  • user-avatar
    Login

    Hourly Weather Shabanovo

    Today, 20 September, Thursday

    Time Temperature Precipitation Wind Pressure Humidity
    00:00 +16°C° 0 mm 3 mps 751 mmHg 92%
    01:00 +15°C° 0 mm 2 mps 751 mmHg 94%
    02:00 +15°C° 0 mm 2 mps 751 mmHg 96%
    03:00 +14°C° 0 mm 2 mps 751 mmHg 97%
    04:00 +14°C° 0 mm 2 mps 752 mmHg 97%
    05:00 +13°C° 0 mm 2 mps 752 mmHg 97%
    06:00 +14°C° 0 mm 2 mps 752 mmHg 94%
    07:00 +15°C° 0 mm 2 mps 752 mmHg 91%
    08:00 +16°C° 0 mm 3 mps 753 mmHg 87%
    09:00 +17°C° 0 mm 3 mps 753 mmHg 79%
    10:00 +19°C° 0 mm 3 mps 753 mmHg 71%
    11:00 +21°C° 0 mm 3 mps 753 mmHg 63%
    12:00 +22°C° 0 mm 3 mps 753 mmHg 61%
    13:00 +24°C° 0 mm 3 mps 753 mmHg 58%
    14:00 +24°C° 0 mm 3 mps 753 mmHg 55%
    15:00 +24°C° 0 mm 3 mps 753 mmHg 60%
    16:00 +23°C° 0 mm 2 mps 753 mmHg 64%
    17:00 +21°C° 0 mm 2 mps 752 mmHg 69%
    18:00 +20°C° 0 mm 2 mps 753 mmHg 73%
    19:00 +18°C° 0 mm 2 mps 753 mmHg 77%
    20:00 +17°C° 0 mm 2 mps 753 mmHg 81%
    21:00 +17°C° 0 mm 2 mps 753 mmHg 83%
    22:00 +17°C° 0 mm 2 mps 753 mmHg 84%
    23:00 +16°C° 0 mm 2 mps 753 mmHg 86%

    Tomorrow, 21 September, Friday

    Time Temperature Precipitation Wind Pressure Humidity
    00:00 +16°C° 0 mm 2 mps 753 mmHg 89%
    01:00 +16°C° 0 mm 2 mps 753 mmHg 92%
    02:00 +16°C° 0 mm 2 mps 753 mmHg 95%
    03:00 +16°C° 0 mm 2 mps 753 mmHg 96%
    04:00 +15°C° 0 mm 2 mps 753 mmHg 96%
    05:00 +15°C° 0 mm 2 mps 753 mmHg 97%
    06:00 +17°C° 0 mm 2 mps 753 mmHg 93%
    07:00 +18°C° 0 mm 3 mps 753 mmHg 89%
    08:00 +19°C° 0 mm 3 mps 754 mmHg 85%
    09:00 +20°C° 0 mm 3 mps 753 mmHg 78%
    10:00 +22°C° 0 mm 3 mps 753 mmHg 72%
    11:00 +25°C° 0 mm 4 mps 753 mmHg 65%
    12:00 +26°C° 0.1 mm 4 mps 753 mmHg 63%
    13:00 +26°C° 0.1 mm 4 mps 753 mmHg 60%
    14:00 +27°C° 0.1 mm 4 mps 752 mmHg 57%
    15:00 +26°C° 0 mm 4 mps 752 mmHg 61%
    16:00 +25°C° 0 mm 3 mps 752 mmHg 66%
    17:00 +24°C° 0 mm 3 mps 751 mmHg 70%
    18:00 +22°C° 0 mm 3 mps 751 mmHg 72%
    19:00 +21°C° 0 mm 3 mps 751 mmHg 75%
    20:00 +20°C° 0 mm 4 mps 751 mmHg 77%
    21:00 +20°C° 0 mm 4 mps 750 mmHg 76%
    22:00 +19°C° 0 mm 4 mps 750 mmHg 75%
    23:00 +19°C° 0 mm 4 mps 750 mmHg 74%

    Day after tomorrow, 22 September, Saturday

    Time Temperature Precipitation Wind Pressure Humidity
    00:00 +19°C° 0 mm 4 mps 749 mmHg 74%
    01:00 +19°C° 0 mm 4 mps 749 mmHg 74%
    02:00 +19°C° 0 mm 5 mps 748 mmHg 73%
    03:00 +19°C° 0 mm 5 mps 747 mmHg 72%
    04:00 +19°C° 0 mm 5 mps 747 mmHg 71%
    05:00 +17°C° 0 mm 5 mps 746 mmHg 69%
    06:00 +19°C° 0 mm 5 mps 746 mmHg 68%
    07:00 +19°C° 0 mm 6 mps 746 mmHg 67%
    08:00 +19°C° 0 mm 6 mps 746 mmHg 66%
    09:00 +17°C° 0.3 mm 6 mps 746 mmHg 70%
    10:00 +16°C° 0.3 mm 5 mps 747 mmHg 75%
    11:00 +15°C° 0.3 mm 5 mps 747 mmHg 79%
    12:00 +14°C° 0.6 mm 4 mps 748 mmHg 82%
    13:00 +13°C° 0.6 mm 4 mps 748 mmHg 86%
    14:00 +12°C° 0.6 mm 3 mps 748 mmHg 90%
    15:00 +12°C° 0.3 mm 3 mps 749 mmHg 90%
    16:00 +12°C° 0.3 mm 3 mps 749 mmHg 89%
    17:00 +12°C° 0.3 mm 3 mps 749 mmHg 89%
    18:00 +12°C° 0.3 mm 3 mps 749 mmHg 89%
    19:00 +11°C° 0.3 mm 3 mps 749 mmHg 88%
    20:00 +11°C° 0.3 mm 3 mps 749 mmHg 87%
    21:00 +11°C° 0.1 mm 3 mps 749 mmHg 87%
    22:00 +10°C° 0.1 mm 3 mps 749 mmHg 87%
    23:00 +10°C° 0.1 mm 3 mps 749 mmHg 87%

    23 September, Sunday

    Time Temperature Precipitation Wind Pressure Humidity
    00:00 +9°C° 0 mm 3 mps 749 mmHg 88%
    01:00 +9°C° 0 mm 3 mps 749 mmHg 89%
    02:00 +8°C° 0 mm 2 mps 748 mmHg 91%
    03:00 +8°C° 0 mm 3 mps 748 mmHg 91%
    04:00 +8°C° 0 mm 3 mps 748 mmHg 91%
    05:00 +8°C° 0 mm 3 mps 748 mmHg 92%
    06:00 +8°C° 0 mm 3 mps 747 mmHg 88%
    07:00 +8°C° 0 mm 4 mps 747 mmHg 85%
    08:00 +8°C° 0 mm 4 mps 747 mmHg 81%
    09:00 +10°C° 0 mm 5 mps 746 mmHg 76%
    10:00 +12°C° 0 mm 5 mps 746 mmHg 71%
    11:00 +13°C° 0 mm 5 mps 746 mmHg 66%
    12:00 +13°C° 0.2 mm 5 mps 746 mmHg 65%
    13:00 +13°C° 0.2 mm 5 mps 746 mmHg 63%
    14:00 +14°C° 0.2 mm 5 mps 746 mmHg 62%
    15:00 +13°C° 0.2 mm 5 mps 746 mmHg 66%
    16:00 +12°C° 0.2 mm 4 mps 746 mmHg 70%
    17:00 +11°C° 0.2 mm 3 mps 746 mmHg 73%
    18:00 +10°C° 0 mm 3 mps 746 mmHg 76%
    19:00 +10°C° 0 mm 3 mps 746 mmHg 79%
    20:00 +9°C° 0 mm 3 mps 746 mmHg 81%
    21:00 +8°C° 0 mm 3 mps 746 mmHg 83%
    22:00 +8°C° 0 mm 3 mps 746 mmHg 85%
    23:00 +7°C° 0 mm 3 mps 745 mmHg 87%

    24 September, Monday

    Time Temperature Precipitation Wind Pressure Humidity
    00:00 +7°C° 0 mm 3 mps 745 mmHg 89%
    01:00 +7°C° 0 mm 2 mps 745 mmHg 91%
    02:00 +6°C° 0 mm 2 mps 745 mmHg 94%
    03:00 +6°C° 0 mm 2 mps 744 mmHg 95%
    04:00 +6°C° 0 mm 2 mps 744 mmHg 96%
    05:00 +6°C° 0 mm 2 mps 743 mmHg 96%
    06:00 +6°C° 0.2 mm 2 mps 743 mmHg 95%
    07:00 +7°C° 0.2 mm 2 mps 742 mmHg 93%
    08:00 +8°C° 0.2 mm 2 mps 741 mmHg 92%
    09:00 +8°C° 1 mm 3 mps 740 mmHg 92%
    10:00 +7°C° 1 mm 4 mps 739 mmHg 91%
    11:00 +7°C° 1 mm 4 mps 738 mmHg 91%
    12:00 +7°C° 2.8 mm 5 mps 737 mmHg 92%
    13:00 +7°C° 2.8 mm 5 mps 736 mmHg 93%
    14:00 +5°C° 2.8 mm 6 mps 735 mmHg 94%
    15:00 +5°C° 3.5 mm 6 mps 734 mmHg 94%
    16:00 +5°C° 3.5 mm 6 mps 733 mmHg 94%
    17:00 +5°C° 3.5 mm 6 mps 732 mmHg 95%
    18:00 +5°C° 2.1 mm 6 mps 732 mmHg 94%
    19:00 +5°C° 2.1 mm 7 mps 733 mmHg 93%
    20:00 +5°C° 2.1 mm 7 mps 733 mmHg 93%
    21:00 +5°C° 1.8 mm 8 mps 733 mmHg 92%
    22:00 +5°C° 1.8 mm 8 mps 734 mmHg 91%
    23:00 +5°C° 1.8 mm 8 mps 734 mmHg 90%

    25 September, Tuesday

    Time Temperature Precipitation Wind Pressure Humidity
    00:00 +5°C° 1 mm 8 mps 735 mmHg 88%
    01:00 +4°C° 1 mm 8 mps 736 mmHg 87%
    02:00 +4°C° 1 mm 8 mps 737 mmHg 85%
    03:00 +4°C° 0.3 mm 8 mps 738 mmHg 85%
    04:00 +4°C° 0.3 mm 7 mps 739 mmHg 84%
    05:00 +4°C° 0.3 mm 7 mps 740 mmHg 84%
    06:00 +4°C° 0.1 mm 7 mps 741 mmHg 83%
    07:00 +4°C° 0.1 mm 7 mps 742 mmHg 81%
    08:00 +4°C° 0.1 mm 7 mps 743 mmHg 80%
    09:00 +5°C° 0.1 mm 7 mps 744 mmHg 75%
    10:00 +5°C° 0.1 mm 7 mps 744 mmHg 70%
    11:00 +6°C° 0.1 mm 7 mps 745 mmHg 66%
    12:00 +8°C° 0.1 mm 7 mps 746 mmHg 61%
    13:00 +8°C° 0.1 mm 7 mps 747 mmHg 55%
    14:00 +9°C° 0.1 mm 7 mps 747 mmHg 50%
    15:00 +8°C° 0 mm 6 mps 748 mmHg 54%
    16:00 +8°C° 0 mm 5 mps 749 mmHg 58%
    17:00 +7°C° 0 mm 4 mps 749 mmHg 62%
    18:00 +6°C° 0 mm 4 mps 750 mmHg 65%
    19:00 +7°C° 0 mm 3 mps 751 mmHg 69%
    20:00 +5°C° 0 mm 3 mps 751 mmHg 72%
    21:00 +5°C° 0 mm 3 mps 752 mmHg 72%
    22:00 +5°C° 0 mm 4 mps 752 mmHg 73%
    23:00 +4°C° 0 mm 4 mps 753 mmHg 74%
    Show more